TimeCST,TemperatureF,Dew PointF,Humidity,Sea Level PressureIn,VisibilityMPH,Wind Direction,Wind SpeedMPH,Gust SpeedMPH,PrecipitationIn,Events,Conditions,WindDirDegrees,DateUTC
12:14 AM,10.4,3.2,73,30.24,10.0,SSE,3.5,-,N/A,Snow,Light Snow,160,2013-01-15 06:14:00
12:33 AM,10.4,5.0,79,30.23,10.0,Calm,Calm,-,N/A,,Overcast,0,2013-01-15 06:33:00
12:53 AM,10.4,3.2,73,30.22,10.0,SSE,3.5,-,N/A,,Mostly Cloudy,160,2013-01-15 06:53:00
1:14 AM,10.4,3.2,73,30.22,10.0,South,4.6,-,N/A,,Scattered Clouds,170,2013-01-15 07:14:00
1:33 AM,8.6,1.4,73,30.22,10.0,South,4.6,-,N/A,,Clear,190,2013-01-15 07:33:00
1:54 AM,6.8,1.4,79,30.22,10.0,South,4.6,-,N/A,,Clear,180,2013-01-15 07:54:00
2:13 AM,6.8,1.4,79,30.22,10.0,Calm,Calm,-,N/A,,Clear,0,2013-01-15 08:13:00
2:33 AM,6.8,3.2,85,30.22,10.0,SSW,3.5,-,N/A,,Clear,210,2013-01-15 08:33:00
2:54 AM,6.8,3.2,85,30.22,10.0,WSW,3.5,-,N/A,,Scattered Clouds,240,2013-01-15 08:54:00
3:13 AM,6.8,3.2,85,30.21,10.0,SW,3.5,-,N/A,,Scattered Clouds,230,2013-01-15 09:13:00
3:33 AM,6.8,3.2,85,30.21,10.0,SW,3.5,-,N/A,,Mostly Cloudy,230,2013-01-15 09:33:00
3:53 AM,6.8,3.2,85,30.20,10.0,SW,4.6,-,N/A,,Overcast,220,2013-01-15 09:53:00
5:13 AM,6.8,3.2,85,30.19,10.0,WSW,4.6,-,N/A,,Scattered Clouds,240,2013-01-15 11:13:00
5:33 AM,6.8,3.2,85,30.19,10.0,WSW,3.5,-,N/A,,Clear,240,2013-01-15 11:33:00
6:13 AM,6.8,3.2,85,30.19,10.0,SW,4.6,-,N/A,,Clear,230,2013-01-15 12:13:00
6:33 AM,6.8,3.2,85,30.19,10.0,SW,3.5,-,N/A,,Clear,220,2013-01-15 12:33:00
6:53 AM,5.0,1.4,85,30.19,10.0,Calm,Calm,-,N/A,,Scattered Clouds,0,2013-01-15 12:53:00
7:14 AM,5.0,1.4,85,30.19,10.0,Calm,Calm,-,N/A,,Mostly Cloudy,0,2013-01-15 13:14:00
7:33 AM,5.0,1.4,85,30.19,10.0,Calm,Calm,-,N/A,,Overcast,0,2013-01-15 13:33:00
7:53 AM,6.8,3.2,85,30.19,10.0,Calm,Calm,-,N/A,,Overcast,0,2013-01-15 13:53:00
8:13 AM,6.8,3.2,85,30.20,10.0,Calm,Calm,-,N/A,,Overcast,0,2013-01-15 14:13:00
8:33 AM,6.8,3.2,85,30.20,10.0,Calm,Calm,-,N/A,,Overcast,0,2013-01-15 14:33:00
8:53 AM,8.6,3.2,79,30.19,10.0,Calm,Calm,-,N/A,,Overcast,0,2013-01-15 14:53:00
9:13 AM,8.6,5.0,85,30.19,10.0,Calm,Calm,-,N/A,,Overcast,0,2013-01-15 15:13:00
9:33 AM,10.4,5.0,79,30.18,10.0,SSE,3.5,-,N/A,,Overcast,160,2013-01-15 15:33:00
9:53 AM,12.2,8.6,85,30.19,10.0,Calm,Calm,-,N/A,,Overcast,0,2013-01-15 15:53:00
10:13 AM,12.2,8.6,85,30.18,10.0,SSW,3.5,-,N/A,,Overcast,210,2013-01-15 16:13:00
10:33 AM,14.0,8.6,79,30.17,10.0,South,4.6,-,N/A,,Overcast,190,2013-01-15 16:33:00
10:53 AM,14.0,8.6,79,30.15,10.0,South,4.6,-,N/A,,Overcast,170,2013-01-15 16:53:00
11:13 AM,17.6,10.4,73,30.14,10.0,South,6.9,-,N/A,,Scattered Clouds,170,2013-01-15 17:13:00
11:34 AM,17.6,10.4,73,30.12,10.0,South,9.2,-,N/A,,Clear,170,2013-01-15 17:34:00
11:53 AM,19.4,10.4,68,30.11,10.0,SSW,10.4,-,N/A,,Clear,200,2013-01-15 17:53:00
12:14 PM,19.4,10.4,68,30.10,10.0,SSW,11.5,-,N/A,,Clear,200,2013-01-15 18:14:00
12:33 PM,21.2,12.2,68,30.08,10.0,South,9.2,-,N/A,,Clear,190,2013-01-15 18:33:00
12:54 PM,23.0,12.2,63,30.08,10.0,SSW,5.8,-,N/A,,Clear,200,2013-01-15 18:54:00
1:33 PM,24.8,10.4,54,30.06,10.0,SW,12.7,16.1,N/A,,Clear,220,2013-01-15 19:33:00
1:54 PM,26.6,12.2,55,30.05,10.0,SSW,11.5,-,N/A,,Clear,210,2013-01-15 19:54:00
2:13 PM,26.6,12.2,55,30.04,10.0,SSW,12.7,-,N/A,,Clear,200,2013-01-15 20:13:00
2:33 PM,26.6,12.2,55,30.04,10.0,SSW,11.5,-,N/A,,Clear,210,2013-01-15 20:33:00
2:53 PM,26.6,12.2,55,30.02,10.0,SSW,9.2,-,N/A,,Clear,200,2013-01-15 20:53:00
3:13 PM,26.6,12.2,55,30.03,10.0,SSW,12.7,18.4,N/A,,Clear,210,2013-01-15 21:13:00
3:34 PM,24.8,10.4,54,30.02,10.0,SSW,11.5,-,N/A,,Clear,210,2013-01-15 21:34:00
3:53 PM,24.8,10.4,54,30.02,10.0,SSW,9.2,-,N/A,,Clear,210,2013-01-15 21:53:00
4:13 PM,24.8,10.4,54,30.02,10.0,SW,11.5,18.4,N/A,,Clear,220,2013-01-15 22:13:00
4:33 PM,24.8,10.4,54,30.02,10.0,SW,9.2,16.1,N/A,,Clear,220,2013-01-15 22:33:00
4:53 PM,23.0,10.4,59,30.02,10.0,SSW,9.2,-,N/A,,Clear,210,2013-01-15 22:53:00
5:33 PM,21.2,10.4,63,29.99,10.0,SSW,6.9,-,N/A,,Clear,210,2013-01-15 23:33:00
5:54 PM,19.4,10.4,68,29.98,10.0,SSW,5.8,-,N/A,,Clear,210,2013-01-15 23:54:00
6:13 PM,19.4,10.4,68,29.97,10.0,SSW,5.8,-,N/A,,Clear,200,2013-01-16 00:13:00
6:34 PM,19.4,10.4,68,29.96,10.0,SSW,5.8,-,N/A,,Clear,200,2013-01-16 00:34:00
6:53 PM,19.4,12.2,74,29.95,10.0,SSW,6.9,-,N/A,,Clear,210,2013-01-16 00:53:00
7:13 PM,21.2,12.2,68,29.94,10.0,SSW,10.4,-,N/A,,Clear,210,2013-01-16 01:13:00
7:34 PM,21.2,14.0,74,29.92,10.0,SSW,10.4,-,N/A,,Clear,210,2013-01-16 01:34:00
7:53 PM,21.2,12.2,68,29.91,10.0,SSW,9.2,-,N/A,,Clear,210,2013-01-16 01:53:00
8:14 PM,21.2,12.2,68,29.89,10.0,SSW,10.4,-,N/A,,Clear,200,2013-01-16 02:14:00
8:33 PM,21.2,12.2,68,29.87,10.0,SSW,9.2,-,N/A,,Clear,200,2013-01-16 02:33:00
8:53 PM,21.2,12.2,68,29.86,10.0,SSW,9.2,-,N/A,,Clear,200,2013-01-16 02:53:00
9:13 PM,21.2,12.2,68,29.85,10.0,SSW,10.4,-,N/A,,Clear,200,2013-01-16 03:13:00
9:33 PM,21.2,12.2,68,29.83,10.0,SSW,10.4,-,N/A,,Clear,210,2013-01-16 03:33:00
9:54 PM,21.2,12.2,68,29.82,10.0,SSW,10.4,-,N/A,,Clear,210,2013-01-16 03:54:00
10:13 PM,21.2,12.2,68,29.81,10.0,SW,12.7,18.4,N/A,,Clear,220,2013-01-16 04:13:00
10:34 PM,21.2,12.2,68,29.79,10.0,SW,12.7,-,N/A,,Clear,220,2013-01-16 04:34:00
10:53 PM,23.0,12.2,63,29.79,10.0,SW,11.5,-,N/A,,Scattered Clouds,220,2013-01-16 04:53:00
11:13 PM,21.2,12.2,68,29.77,10.0,SSW,11.5,-,N/A,,Mostly Cloudy,210,2013-01-16 05:13:00
11:33 PM,23.0,12.2,63,29.76,10.0,SW,13.8,19.6,N/A,,Overcast,220,2013-01-16 05:33:00